Lapse_Rate
2.7 2.6 3.1 2.8 2.7 2.6 2.5 2.3 2.1 1.9 1.9 2.0 2.0 1.8 1.9 2.0 2.2 2.4 2.5 2.5 2.7 3.0 3.1 3.4 4.0 4.3 5.3 7.5 7.7 8.3 7.1 7.8 8.9 9.3 8.6 8.1 7.5 7.1 6.5 6.6 6.8 6.5 6.6 6.9 7.1 6.9 7.0
2.6 2.7 2.6 2.6 2.4 2.4 2.5 2.4 2.1 2.1 2.1 1.9 1.5 1.4 1.4 1.4 1.9 2.0 2.1 2.2 2.4 2.6 2.7 3.0 3.7 4.5 6.8 6.7 7.8 7.8 7.3 7.8 8.5 8.9 8.5 8.3 7.8 7.8 6.9 6.6 6.5 6.6 6.7 6.7 6.8 6.7 7.0
2.4 2.5 2.5 2.3 2.4 2.2 2.1 2.2 2.1 2.0 2.0 1.7 1.3 1.0 1.1 1.3 1.5 1.6 1.7 1.9 2.0 2.2 2.3 2.7 3.5 6.2 7.6 7.3 7.8 7.4 7.3 8.2 8.2 8.6 8.2 8.6 8.2 7.6 7.2 6.5 7.3 6.8 6.5 6.5 6.4 6.7 6.5
2.4 2.5 2.3 2.2 2.3 2.3 2.3 2.2 2.0 2.0 1.9 1.7 1.1 0.8 0.9 1.0 1.0 1.1 1.1 1.4 1.5 1.7 2.0 2.9 3.6 6.4 7.3 7.0 7.3 7.3 8.7 8.7 9.2 9.2 8.9 9.0 8.8 7.8 7.3 7.3 6.8 6.5 6.5 6.5 6.5 6.5 6.3
2.2 2.4 2.1 1.9 2.2 2.2 2.1 2.0 1.9 1.8 1.7 1.4 1.0 0.6 0.7 0.6 0.7 0.7 0.8 1.0 1.5 1.8 2.5 3.5 5.2 7.3 7.0 5.6 7.5 7.8 7.8 7.7 8.4 8.9 8.6 9.2 8.5 7.2 7.0 6.5 6.5 6.5 6.5 6.5 6.5 6.5 6.5
2.1 2.1 2.1 1.9 2.0 1.9 2.0 2.0 1.9 1.9 1.7 1.2 0.7 0.3 0.4 0.5 0.5 0.7 1.2 1.3 2.9 2.4 3.4 6.1 7.0 7.1 7.3 7.5 7.9 7.3 8.0 8.0 8.2 7.9 7.2 7.4 6.7 6.5 6.5 6.5 6.5 6.5 6.5 6.5 6.5 6.5 6.5
2.1 2.0 2.0 2.0 1.9 2.2 1.9 1.6 1.7 1.7 1.5 0.9 0.3 -0.1 0.1 0.3 0.7 1.2 2.8 4.1 5.3 5.3 6.7 7.1 7.4 7.4 7.7 7.3 6.9 6.7 8.5 7.8 7.9 7.1 6.5 6.6 6.5 6.5 6.5 6.5 6.5 6.5 6.5 6.5 6.5 6.5 6.5
2.3 2.1 2.1 1.9 1.8 1.9 1.8 1.6 1.6 1.6 1.2 0.8 0.2 -0.3 -0.2 0.5 0.8 1.9 2.4 7.7 4.8 5.0 6.4 7.3 6.8 6.9 7.9 6.5 7.2 7.4 7.4 7.2 6.7 6.5 6.2 6.5 6.5 6.5 6.5 6.5 6.5 6.5 6.5 6.5 6.5 6.5 6.5
2.3 2.2 2.0 2.1 1.9 1.8 1.6 1.4 1.3 1.4 1.3 0.8 0.3 -0.2 0.1 0.3 1.4 3.5 5.7 4.8 5.1 6.0 6.7 6.8 7.7 7.5 7.5 6.8 7.2 7.3 7.3 7.2 6.4 6.5 6.5 6.5 6.5 6.5 6.5 6.5 6.5 6.5 6.5 6.5 6.5 6.5 6.5
2.5 2.5 2.3 2.1 2.1 2.1 2.1 1.9 1.5 1.3 1.0 0.6 0.4 0.1 0.4 0.6 3.1 5.6 5.7 5.3 5.1 5.8 6.5 6.5 6.7 7.2 7.4 7.3 6.7 7.9 7.8 7.1 6.6 6.5 6.5 6.5 6.5 6.5 6.5 6.5 6.5 6.5 6.5 6.5 6.5 6.5 6.5
3.3 3.0 2.8 2.4 2.2 2.1 1.8 1.8 1.6 1.4 1.0 0.9 0.5 0.4 0.3 0.4 4.0 6.3 4.6 4.7 5.1 5.3 6.5 6.5 6.7 6.7 7.6 6.6 6.6 6.8 6.8 7.3 6.5 6.5 6.5 6.5 6.5 6.5 6.5 6.5 6.5 6.5 6.5 6.5 6.5 6.5 6.5
4.0 3.5 3.0 2.6 2.4 2.3 1.8 1.6 1.5 1.2 1.0 0.7 0.5 0.5 0.9 3.8 4.6 4.4 4.5 4.6 4.6 6.5 6.5 6.5 6.8 6.5 6.5 6.5 6.8 7.2 6.7 6.5 6.2 6.5 6.5 6.5 6.4 6.5 6.5 6.5 6.5 6.5 6.5 6.5 6.5 6.5 6.5
5.8 5.4 4.7 3.5 2.9 2.7 2.2 1.8 1.5 1.2 0.9 0.7 0.5 0.2 1.0 3.3 4.6 4.1 4.4 5.0 6.5 6.5 6.5 6.5 6.5 6.5 6.5 6.5 6.5 6.5 6.5 6.5 6.5 6.5 6.5 6.5 6.5 6.5 6.6 6.5 6.5 6.5 6.5 6.5 6.5 6.5 6.5
6.2 6.1 5.4 4.9 4.6 3.7 3.0 2.5 2.0 1.5 1.0 0.5 0.5 -0.0 2.0 3.3 3.7 4.0 4.4 6.4 6.5 6.5 6.5 6.5 6.5 6.5 6.5 6.5 6.5 6.5 6.5 6.5 6.5 6.5 6.5 6.5 6.5 6.5 6.5 6.5 6.5 6.5 6.5 6.5 6.5 6.5 6.5
5.3 5.3 4.9 4.8 4.5 4.5 4.3 3.5 2.6 2.1 1.6 0.8 1.1 3.0 3.1 3.0 3.3 3.5 5.4 6.5 6.5 6.5 6.5 6.5 6.5 6.5 6.5 6.5 6.5 6.5 6.5 6.5 6.5 6.5 6.5 6.5 6.5 6.5 6.5 6.5 6.5 6.5 6.5 6.5 6.5 6.5 6.5
4.5 4.4 4.6 5.1 5.0 5.0 5.1 4.3 3.6 2.5 2.1 1.6 1.1 3.4 5.3 3.5 3.7 4.0 6.3 6.5 6.5 6.6 6.6 6.5 6.5 6.5 6.5 6.5 6.5 6.5 6.5 6.5 6.5 6.5 6.5 6.5 6.5 6.5 6.5 6.6 6.4 6.5 6.5 6.5 6.5 6.5 6.5
4.7 4.7 4.5 4.3 3.8 4.3 4.5 5.3 5.1 3.6 2.6 2.6 2.3 5.0 3.2 4.0 3.8 5.6 6.5 6.5 6.5 6.8 6.7 6.5 6.5 6.5 6.5 6.5 6.5 6.5 6.5 6.5 6.5 6.5 6.6 6.5 6.5 6.5 6.5 6.5 6.5 6.5 6.5 6.5 6.5 6.5 6.5
5.0 5.0 4.8 4.4 4.2 3.9 4.4 5.2 5.1 5.5 3.9 4.6 4.1 6.2 3.6 3.9 6.1 5.6 6.5 6.5 5.5 6.6 7.0 6.5 6.5 6.5 6.5 6.5 6.5 6.5 6.5 6.5 6.5 6.6 6.5 6.5 6.5 6.5 6.5 6.5 6.5 6.5 6.5 6.5 6.5 6.5 6.5
5.7 5.4 5.0 4.8 4.5 4.2 4.1 4.3 5.3 5.2 5.9 5.4 6.0 6.0 3.9 3.8 6.5 6.5 6.4 6.5 6.6 6.5 6.5 6.5 6.5 6.5 6.5 6.5 6.5 6.5 6.5 6.4 6.6 6.5 6.5 6.5 6.5 6.5 6.5 6.5 6.5 6.5 6.5 6.5 6.5 6.5 6.5
6.7 6.0 5.7 5.8 5.2 5.0 4.6 4.2 4.5 4.5 5.4 6.0 6.5 6.5 5.5 6.1 6.1 6.5 6.5 6.5 6.5 6.4 6.5 6.5 6.5 6.4 6.5 6.5 6.5 6.5 6.5 6.5 6.4 6.6 6.0 6.3 6.5 6.5 6.5 6.5 6.5 6.5 6.5 6.5 6.5 6.5 6.5
9.3 7.7 6.8 6.6 6.8 6.3 5.3 4.8 3.9 4.2 3.9 5.8 7.2 6.4 6.3 6.5 6.4 6.3 6.4 6.5 6.5 6.5 6.4 6.3 6.5 6.5 6.5 6.5 6.5 6.5 6.5 6.5 6.4 6.3 6.5 6.5 6.5 6.5 6.5 6.5 6.5 6.5 6.5 6.5 6.5 6.5 6.5
9.3 9.4 8.6 8.6 7.9 8.0 7.2 6.1 5.1 4.2 3.9 5.7 6.5 6.5 6.4 6.5 6.3 6.3 6.6 6.5 6.5 6.5 6.5 6.5 6.5 6.5 6.5 6.5 6.5 6.5 6.5 6.5 6.5 6.4 6.5 6.4 6.5 6.5 6.5 6.5 6.5 6.5 6.5 6.5 6.5 6.5 6.5
8.9 9.0 8.3 8.6 8.9 8.5 8.7 7.4 5.9 5.6 4.7 5.8 6.5 6.6 6.9 6.7 6.3 6.5 6.5 6.5 6.5 6.2 6.0 6.0 6.3 6.5 6.5 6.5 5.7 5.8 6.0 5.8 6.4 6.5 6.5 6.5 6.5 6.5 6.5 6.5 6.5 6.5 6.5 6.5 6.5 6.5 6.5
8.4 9.0 9.1 8.6 8.5 8.7 8.2 7.5 8.0 7.1 7.2 6.2 6.1 6.1 6.7 6.5 6.5 6.5 6.5 6.2 6.5 6.2 6.5 6.3 5.9 6.3 6.1 4.5 4.8 5.7 6.4 6.2 6.0 6.1 5.7 6.5 6.5 6.5 6.5 6.5 6.5 6.5 6.5 6.5 6.5 6.5 6.5
8.7 8.9 8.3 8.7 8.8 8.4 8.6 8.3 8.5 8.2 8.1 7.1 6.5 6.1 7.1 6.5 6.7 6.6 6.5 6.4 6.4 6.2 6.0 5.9 6.1 5.8 4.6 6.0 6.5 6.5 6.5 6.5 6.5 6.5 6.5 6.3 6.5 6.5 6.5 6.5 6.5 6.5 6.5 6.5 6.5 6.5 6.5
9.1 9.5 8.6 8.9 8.3 8.6 8.5 8.9 8.2 8.1 7.4 7.1 7.1 6.4 6.4 6.6 6.5 7.3 6.7 6.6 6.5 6.5 6.5 5.8 5.1 6.2 6.5 6.2 6.5 6.5 6.5 6.5 6.5 6.5 6.5 6.5 6.5 6.5 6.5 6.5 6.5 6.5 6.5 6.6 6.5 6.5 6.5
8.2 9.2 8.7 8.8 8.7 8.5 8.6 9.0 9.0 8.4 7.9 7.6 7.3 7.2 6.9 6.6 7.3 7.7 6.6 6.6 7.0 6.5 6.5 5.4 6.0 5.8 6.1 6.5 6.5 6.5 6.5 6.5 6.5 6.5 6.5 6.5 6.5 6.5 6.5 6.5 6.5 6.5 6.4 6.3 6.5 6.5 6.4
7.9 8.9 8.7 8.8 8.6 8.7 8.7 9.0 9.2 8.9 8.5 7.9 7.2 7.3 6.6 7.1 7.3 8.0 7.7 7.2 7.1 6.7 6.5 5.5 6.2 6.2 6.2 6.5 6.5 6.5 6.5 6.5 6.5 6.5 6.5 6.5 6.5 6.5 6.5 6.5 6.5 5.9 6.3 6.5 6.3 6.3 6.6
8.9 9.0 8.6 8.8 8.9 8.6 8.4 8.8 9.3 9.3 8.9 8.7 7.2 8.0 7.3 6.8 7.3 8.0 7.6 7.7 7.6 7.9 6.7 5.8 5.9 5.8 6.2 6.5 6.5 6.5 6.5 6.5 6.5 6.5 6.5 6.5 6.5 6.5 6.5 6.5 6.1 6.5 5.8 6.0 6.3 6.2 6.5
Wind_Speed
11 12 12 13 14 14 14 15 15 15 16 17 16 15 13 12 12 12 12 13 12 11 12 12 12 14 8 0 4 5 6 9 9 7 8 8 9 7 8 5 9 9 9 10 9 9 11
12 11 12 13 13 14 15 16 16 17 17 17 17 15 13 11 12 12 13 13 12 12 12 11 11 14 5 4 1 3 5 7 7 7 6 7 6 9 6 7 7 8 12 13 14 12 13
12 12 13 14 14 15 16 17 18 18 19 19 18 16 15 12 11 12 13 12 12 12 12 11 7 5 6 1 1 2 4 3 3 5 6 5 4 6 6 9 8 9 14 13 14 12 13
12 12 14 15 15 16 17 17 18 18 19 20 20 17 14 13 12 12 12 12 12 12 13 8 3 4 5 3 1 5 4 6 5 4 3 3 4 7 4 6 6 8 10 5 5 6 6
12 13 14 15 16 17 17 18 19 19 20 21 22 18 16 14 14 12 11 11 12 11 10 6 4 5 2 3 4 2 3 5 6 7 6 6 4 3 5 4 4 2 6 11 6 5 4
10 11 12 14 15 15 16 17 18 19 20 21 22 19 16 14 13 14 15 8 3 5 7 6 6 4 4 4 4 3 5 2 3 8 7 4 5 5 4 3 8 9 7 8 11 6 7
10 11 12 13 14 15 16 17 19 20 22 23 23 20 17 14 13 13 10 3 2 3 5 5 3 4 4 6 3 6 1 4 7 7 5 5 2 4 7 6 8 7 12 12 10 2 6
9 10 12 13 14 15 17 18 19 21 22 24 24 21 16 15 12 8 4 3 3 1 5 4 4 4 3 2 4 6 0 4 4 7 9 3 7 4 6 7 8 10 12 10 5 0 8
10 11 11 13 14 16 17 18 19 20 22 23 25 22 18 16 14 4 5 4 5 5 4 2 1 3 2 1 4 2 1 5 6 6 7 6 8 5 8 10 10 11 9 8 10 7 2
8 10 11 12 13 14 16 17 18 20 22 23 24 24 21 22 4 2 3 3 4 4 3 3 3 2 3 3 4 1 2 2 4 5 6 8 1 6 8 12 4 8 3 7 11 8 2
9 10 11 12 14 15 16 18 19 20 21 23 23 25 21 14 6 1 2 3 4 1 3 3 3 3 2 3 8 4 2 3 5 9 1 8 6 6 6 4 4 9 10 14 10 8 5
11 12 12 13 14 15 16 17 19 20 21 22 23 24 22 2 2 3 5 4 1 3 3 1 1 2 4 5 3 1 5 3 6 5 7 12 5 1 4 10 8 11 11 15 6 3 2
13 14 14 14 15 16 16 17 18 20 21 23 24 23 8 7 2 6 6 3 2 1 1 2 3 3 5 3 3 1 3 6 3 7 4 7 3 4 0 6 2 5 7 4 5 3 2
15 15 15 15 16 15 16 16 18 19 21 23 29 21 3 1 3 5 2 1 1 4 2 2 1 7 4 4 2 2 4 3 2 4 6 3 7 1 2 2 4 5 3 2 4 2 5
17 19 19 16 17 16 15 16 16 18 21 23 26 2 2 3 1 1 2 0 5 2 1 3 4 3 4 2 2 4 4 0 3 5 3 5 5 2 2 1 1 5 3 0 3 5 2
17 16 19 16 22 17 16 15 16 18 20 20 5 3 2 2 1 1 1 5 2 1 2 2 2 1 3 4 2 2 2 2 1 3 3 2 6 3 1 2 4 3 6 3 2 4 5
17 17 16 18 20 20 23 16 16 16 19 23 3 3 1 0 1 2 3 5 2 3 4 4 1 2 5 2 1 4 4 2 1 4 2 4 3 6 5 3 3 2 2 3 1 2 1
16 17 17 19 21 20 21 21 20 15 18 7 3 3 1 1 1 3 3 3 1 4 2 3 3 3 4 0 3 3 3 0 4 1 3 2 3 5 7 5 4 2 3 2 1 4 3
16 17 18 18 19 20 20 20 20 18 6 3 3 3 1 1 4 4 3 4 3 6 5 6 6 6 3 4 3 6 3 3 4 3 2 2 3 5 2 2 1 3 2 2 4 2 5
16 17 17 17 17 18 19 19 20 22 7 2 3 3 2 2 3 3 4 6 5 3 3 4 2 4 4 5 7 3 4 4 4 3 3 1 3 5 5 7 6 7 6 7 3 2 5
17 17 17 17 17 17 17 18 20 23 24 3 3 4 2 3 5 8 5 5 4 5 5 7 4 10 8 5 5 6 5 3 4 5 3 2 4 5 8 11 12 15 16 10 9 8 4
16 17 16 16 16 17 16 15 18 21 25 2 3 2 3 5 9 7 8 6 12 7 9 6 7 10 13 6 7 4 6 5 3 5 5 4 4 5 7 12 8 8 16 13 8 8 8
15 17 16 14 16 18 20 20 18 15 14 2 2 4 4 5 7 10 11 10 9 7 8 11 14 6 11 18 8 3 2 2 1 6 7 6 3 3 6 7 12 7 5 4 3 2 2
15 18 16 15 16 16 18 19 18 15 9 1 1 3 4 10 11 16 16 13 13 12 15 4 6 8 3 6 5 2 2 5 6 6 5 3 3 2 4 7 3 2 4 4 5 6 6
14 16 17 15 15 15 18 19 19 19 17 5 2 2 4 11 13 21 19 20 21 15 10 9 5 1 7 4 2 3 3 2 3 3 2 5 2 2 2 2 8 3 1 1 2 2 4
16 17 17 18 18 17 18 18 17 19 21 10 4 4 4 7 21 18 18 17 15 15 14 7 2 2 3 3 3 6 6 6 5 3 1 2 4 3 2 3 4 3 4 1 1 3 3
18 18 19 21 18 20 19 21 21 17 18 14 5 9 5 8 25 19 13 13 17 17 12 6 6 3 4 4 5 5 5 6 6 8 6 4 3 6 6 5 7 3 4 2 4 2 3
20 19 20 21 22 23 21 21 24 23 20 14 7 12 6 9 25 21 22 28 21 14 14 4 4 3 2 5 5 5 5 7 5 7 8 8 7 4 4 4 9 7 4 5 6 4 3
21 22 23 24 23 22 22 22 24 25 24 23 10 11 15 8 22 10 29 33 21 22 8 5 6 6 8 4 4 4 3 3 6 4 5 4 7 5 8 5 3 2 3 5 3 5 4
Wind_Direction
33 26 22 20 17 14 12 11 10 6 3 357 353 344 335 328 325 321 320 316 313 312 315 324 330 332 326 18 19 4 345 340 315 329 341 347 335 353 352 322 323 280 317 324 325 305 286
34 25 21 19 17 15 10 8 6 1 359 357 352 344 336 329 325 323 317 311 308 305 306 312 324 330 269 26 16 324 340 306 1 339 342 22 352 327 297 313 281 326 309 298 289 273 272
29 22 21 18 17 14 11 8 5 2 358 355 353 346 339 329 324 320 313 305 301 298 298 302 312 311 274 322 212 332 292 314 322 336 332 23 340 325 316 306 334 297 289 283 267 245 245
24 18 20 17 15 12 10 9 5 2 358 354 351 346 339 331 323 317 310 304 298 293 292 291 281 293 280 116 321 248 265 284 224 250 281 320 294 282 263 285 296 303 287 294 309 278 246
20 19 18 17 13 10 8 7 6 2 357 355 351 347 338 334 327 317 306 297 285 281 271 270 251 220 280 147 236 27 269 291 317 268 224 266 266 260 273 253 285 343 289 306 310 303 262
18 18 16 14 9 8 7 5 2 359 355 354 353 347 337 333 330 322 311 282 287 295 241 224 262 262 204 331 350 317 259 261 298 306 270 210 208 248 215 259 323 324 322 305 307 259 229
14 12 11 10 8 2 2 0 358 357 355 352 353 347 335 331 334 330 333 247 229 192 238 269 323 280 310 348 130 206 301 283 240 244 261 172 310 335 343 318 312 309 294 292 307 354 301
4 4 4 4 4 360 357 357 356 354 355 352 350 345 339 327 327 323 291 353 44 325 307 181 272 276 256 36 290 195 28 272 328 293 292 266 253 24 304 291 274 265 267 272 266 213 10
350 352 357 357 357 358 355 354 353 353 351 352 349 347 338 329 319 308 61 53 339 308 259 158 225 291 5 307 292 315 256 312 256 289 327 296 263 357 302 308 296 308 288 325 318 315 197
340 342 347 347 350 350 350 350 351 349 348 348 348 347 340 330 326 322 76 10 337 329 294 177 171 139 200 263 258 104 136 285 281 282 322 269 216 283 303 294 19 303 38 298 309 328 282
328 335 336 340 342 343 345 344 346 346 344 344 346 345 336 341 313 341 19 332 337 232 30 211 145 126 179 227 313 163 100 199 259 292 344 258 329 342 298 344 348 257 322 291 276 280 321
316 321 322 328 333 334 338 339 339 341 340 341 339 341 333 307 246 16 317 300 212 34 279 195 207 243 281 180 211 248 211 215 258 280 231 247 248 187 294 310 255 284 291 294 191 246 356
301 306 309 316 319 321 326 331 334 338 338 337 333 331 323 297 352 332 310 262 29 121 250 359 332 340 332 268 306 144 315 302 7 352 335 310 277 147 122 303 127 326 340 333 357 7 238
300 301 302 306 309 313 317 323 328 332 334 335 328 321 217 285 334 328 272 339 93 266 317 139 234 288 254 16 214 263 283 283 142 297 292 325 331 203 148 354 300 303 350 112 306 351 288
355 6 11 329 298 302 309 315 322 328 332 335 330 200 242 128 294 298 275 285 222 229 129 349 298 279 183 179 264 325 234 258 46 29 342 340 288 175 181 349 327 329 11 24 278 274 25
6 0 5 341 5 329 303 309 316 324 329 334 323 283 145 105 303 243 204 239 251 64 133 190 224 188 297 3 296 299 274 76 37 28 9 325 299 298 133 225 240 263 326 25 305 339 325
9 4 1 1 7 358 5 315 310 321 326 323 274 306 88 98 282 244 213 234 208 162 192 198 226 239 241 286 296 283 284 141 140 135 305 304 238 290 296 192 23 285 315 278 154 180 250
1 3 359 360 3 360 1 359 345 316 332 332 297 264 136 206 245 225 233 222 12 170 156 221 256 241 213 146 267 267 262 191 102 31 265 82 301 284 257 108 61 324 314 304 36 317 289
1 356 357 359 358 357 0 358 357 345 336 322 279 262 167 216 229 213 227 245 230 184 201 190 219 232 181 211 227 214 264 134 145 202 310 40 251 307 326 40 162 247 178 205 271 291 242
356 355 352 351 357 355 358 357 357 358 279 266 277 282 145 215 290 256 259 224 220 200 250 207 218 137 178 233 226 250 222 169 160 201 111 75 271 229 241 278 324 291 286 296 195 259 281
344 345 345 347 347 343 355 359 358 354 350 267 210 248 273 210 235 230 235 271 198 204 228 187 215 207 187 223 198 218 224 214 170 154 187 218 261 250 263 284 282 277 280 272 235 225 235
341 337 334 343 339 348 352 349 349 355 347 230 288 248 326 288 282 254 217 221 229 226 168 217 237 206 214 219 206 170 178 185 230 150 195 175 270 295 279 265 283 273 270 255 235 236 261
341 334 344 353 355 349 348 350 343 347 360 304 302 313 281 237 266 258 230 245 254 229 218 227 208 217 208 226 234 359 348 272 182 166 196 177 217 349 273 352 314 298 352 1 123 47 235
329 333 327 329 339 342 342 337 332 335 334 257 326 305 266 261 242 243 264 255 259 241 243 258 193 211 159 92 83 74 243 242 233 226 193 203 176 212 281 317 355 240 28 7 100 36 354
316 320 327 332 333 335 342 341 331 328 322 286 275 216 285 271 264 260 257 258 272 273 256 249 226 335 145 122 162 251 198 247 221 76 219 180 237 248 247 295 281 40 69 41 227 92 19
310 314 317 321 323 322 328 331 331 321 320 308 248 261 240 283 250 264 271 266 259 258 251 195 112 289 197 183 174 208 219 211 194 139 336 235 232 208 189 230 251 215 158 90 296 221 78
300 305 307 310 317 313 313 319 318 318 315 306 293 255 259 258 264 261 257 257 241 257 258 197 150 176 207 202 201 201 229 177 172 181 176 164 181 212 219 251 280 178 147 153 162 187 98
292 291 290 295 298 306 307 311 310 310 306 305 286 267 246 267 271 247 252 237 252 263 241 164 98 214 157 209 188 204 218 201 207 162 173 165 163 190 186 203 250 153 126 197 155 133 117
279 281 284 283 294 295 298 301 304 306 309 303 289 276 276 265 267 236 237 234 233 246 293 195 213 162 184 183 204 210 195 155 180 220 183 194 188 177 185 212 152 107 124 126 122 117 124